Location: Im Fang
(46.6019°N, 7.2397°E)
Time: 17:08:47
(UTC+00:00)

SL-24 R/B - Pass Details

Date: 08 December 2019
Orbit: 617 x 1346 km, 97.9° (Epoch: 26 January)

Event Time Altitude Azimuth Distance (km) Brightness Sun altitude
Rises 05:37:34 0° 172° (S) 3,120 8.0 -13.8°
Reaches altitude 10° 05:39:56 10° 175° (S) 2,129 7.1 -13.5°
Maximum altitude 05:44:27 67° 258° (WSW) 696 4.1 -12.7°
Drops below altitude 10° 05:48:40 10° 341° (NNW) 1,994 6.3 -12.0°
Enters shadow 05:50:12 - 344° (NNW) 2,633 6.9 -11.8°
